Home   Weather   Maldonado   Past weeks

Flag for Uruguay Past Weather in Maldonado, Uruguay — Yesterday and Last 2 Weeks

Now
75 °F

Sunny.


Feels Like: 78 °F
Forecast: 58 / 74 °F
Wind: 12 mph from Northwest

Location: Capitan Corbeta

Current Time: Apr 30, 2017 at 2:01:00 pm

Latest Report: Apr 30, 2017 at 1:00 pm


Visibility: 10 mi

Pressure: 30.15 "Hg

Humidity: 41%

Dew Point: 50 °F

Location of MaldonadoLocation

Past Weather in Maldonado — Graph

°F

Maldonado Temperature Yesterday

Maximum temperature yesterday: 73 °F (at 1:00 pm)
Minimum temperature yesterday: 55 °F (at 8:00 am)
Average temperature yesterday: 63 °F

High & Low Weather Summary for the Past Weeks

 TemperatureHumidityPressure
High77 °F (Apr 28, 3:00 pm)100% (Apr 21, 7:00 am)30.24 "Hg (Apr 21, 7:00 am)
Low46 °F (Apr 23, 2:00 am)35% (Apr 27, 4:00 pm)29.36 "Hg (Apr 26, 2:00 am)
Average62 °F75%29.97 "Hg
* Reported Apr 15 1:00 pm — Apr 30 1:00 pm, Maldonado, Weather by CustomWeather, © 2017

Note: Actual official high and low records may vary slightly from our data, if they occured in-between our weather recording intervals... More about our weather records

Advertising

Maldonado Weather History for the Previous 24 Hours

Scroll right to see more
 ConditionsComfort  
Time TempWeatherWind HumidityBarometerVisibility
1:00 pm
Sun, Apr 30
75 °FSunny.12 mph41%30.15 "Hg10 mi
12:00 pm73 °FSunny.14 mph41%30.18 "Hg10 mi
11:00 am73 °FSunny.14 mph41%30.18 "Hg10 mi
10:00 am70 °FSunny.13 mph46%30.18 "Hg10 mi
9:00 am64 °FSunny.10 mph60%30.18 "Hg10 mi
8:00 am59 °FSunny.10 mph68%30.15 "Hg10 mi
7:00 am55 °FClear.7 mph77%30.15 "Hg10 mi
6:00 am52 °FClear.3 mph100%30.15 "Hg10 mi
5:00 am52 °FClear.5 mph100%30.12 "Hg10 mi
4:00 am52 °FClear.5 mph100%30.12 "Hg10 mi
3:00 am54 °FClear.7 mph100%30.15 "Hg10 mi
2:00 am54 °FClear.6 mph100%30.15 "Hg10 mi
1:00 am54 °FClear.7 mph100%30.15 "Hg10 mi
11:00 pm
Sat, Apr 29
55 °FClear.5 mph100%30.15 "Hg10 mi
10:00 pm55 °FClear.7 mph94%30.18 "Hg10 mi
9:00 pm57 °FClear.8 mph94%30.18 "Hg10 mi
7:00 pm59 °FClear.5 mph77%30.15 "Hg10 mi
6:00 pm63 °FClear.7 mph73%30.15 "Hg10 mi
5:00 pm66 °FSunny.9 mph68%30.15 "Hg10 mi
4:00 pm68 °FSunny.12 mph69%30.15 "Hg10 mi
3:00 pm72 °FSunny.12 mph61%30.12 "Hg10 mi
2:00 pm73 °FSunny.9 mph50%30.12 "Hg10 mi
Weather by CustomWeather, © 2017

See weather overviewHow to use our weather pages